Tracking 35275 objects as of 9-Sep-2026
HD Live streaming from Space Station
objects crossing your sky now

STARLINK-34020

Track STARLINK-34020 now!
10-day predictions
STARLINK-34020 is classified as:


NORAD ID: 63939
Int'l Code: 2025-098P
Launch date: May 13, 2025
Source: United States (US)
Launch site: AIR FORCE WESTERN TEST RANGE (AFWTR)
Your satellite tracking list
Your tracking list is empty




NASA's NSSDC Master Catalog

Two Line Element Set (TLE):
1 63939U 25098P   26251.58335648  .00070305  00000-0  24304-2 0  9992
2 63939  70.0004 172.3637 0003192 265.6928  36.9564 15.29538084  5727
Source of the keplerian elements: AFSPC